Location: Abantos
(40.6167°N, 4.1500°W)
Time: 06:58:48
(UTC+00:00)

Daily predictions for brighter satellites

Satellite Brightness Start Highest point End
(mag) Time Altitude Azimuth Time Altitude Azimuth Time Altitude Azimuth
Cosmos 1697 Rocket 4.2 17:40:23 10° SE 17:43:41 16° E 17:46:59 10° ENE
Cosmos 2058 Rocket 4.0 17:40:06 10° SSE 17:43:57 29° E 17:47:51 10° NNE
Cosmos 1331 Rocket 4.0 17:39:00 10° SSW 17:44:08 83° ESE 17:49:19 10° NNE
SL-4 R/B 3.9 17:43:22 10° NW 17:45:25 14° N 17:47:31 10° NNE
H-2A R/B 4.1 17:42:09 10° S 17:46:22 44° W 17:50:42 10° NNW
Cosmos 1703 4.2 17:45:53 10° NNW 17:49:45 55° W 17:53:37 10° S
Cosmos 44 3.2 17:47:12 10° SSW 17:51:38 85° WNW 17:56:23 10° NNE
NOAA 11 4.2 17:48:49 10° SSE 17:54:08 58° ENE 17:59:29 10° N
SAR-Lupe-4 3.6 17:57:53 10° NNE 18:01:25 55° ESE 18:04:55 10° S
ERS-2 2.4 17:57:53 10° N 18:01:31 71° WNW 18:05:08 10° SSW
Cosmos 968 Rocket 4.4 18:00:38 10° N 18:05:01 27° ENE 18:09:22 10° ESE
Cosmos 1340 3.3 18:02:43 10° N 18:06:09 32° ENE 18:09:33 10° SE
Cosmos 1980 Rocket 3.8 18:04:12 10° ESE 18:06:28 13° E 18:07:19 12° E
Cosmos 2297 Rocket 2.6 18:04:04 10° N 18:09:27 42° ENE 18:14:47 10° SE
Aureole 3 Rocket 3.2 18:05:54 10° SSE 18:09:32 52° E 18:14:25 10° NNE
COSMO-SKYMED 1 2.7 18:06:01 10° NNE 18:10:17 54° E 18:14:32 10° S
H-2A R/B 4.4 18:08:27 10° NNW 18:11:49 24° WNW 18:15:07 10° WSW
In-Cosmos 22 Rocket 4.4 18:07:18 10° N 18:12:26 44° ENE 18:17:38 10° SSE
FengYun 1-2 T 4.3 18:06:53 10° SSE 18:12:34 88° W 18:18:14 10° NNW
Cosmos 1302 Rocket 4.0 18:09:52 10° SSW 18:15:07 81° ESE 18:20:25 10° NNE
SAR-Lupe-1 4.0 18:15:41 10° NNE 18:19:18 90° SSE 18:22:53 10° SSW
Lacrosse 5 4.1 18:17:43 10° NNW 18:19:47 12° N 18:21:50 10° NNE
Cosmos 1825 Rocket 4.4 18:15:41 10° NNW 18:20:01 54° W 18:24:18 10° S
Cosmos 292 Rocket 4.5 18:15:40 10° SSW 18:20:22 57° WNW 18:25:08 10° N
Okean O Rocket 3.2 18:16:19 10° SSW 18:20:24 39° W 18:24:29 10° NNW
FALCON 9 DEB 4.5 18:17:56 10° W 18:20:52 31° NNW 18:23:30 12° NNE
YAOGAN 1 3.3 18:18:10 10° SE 18:21:58 31° ENE 18:25:47 10° N
Aureole 3 2.6 18:20:01 10° S 18:23:17 83° E 18:26:17 10° N
Cosmos 1486 Rocket 4.4 18:20:38 10° N 18:25:41 42° ENE 18:30:42 10° SE
Milstar 3 4.0 18:20:29 10° SW 18:26:36 30° S 18:31:53 12° ESE
Timation 2 Rocket 4.2 18:21:12 10° NNW 18:27:52 88° WSW 18:34:44 10° SSE
Meteor 2-8 Rocket 4.4 18:23:03 10° S 18:29:07 79° E 18:35:16 10° N
Cosmos 1455 3.0 18:25:55 10° SSE 18:29:10 28° E 18:31:13 18° NE
CZ-2C R/B 3.6 18:26:28 10° SE 18:31:57 45° ENE 18:37:18 10° N
USA 281 4.2 18:25:43 10° S 18:32:00 49° WSW 18:38:20 10° NW
Cosmos 44 Rocket 4.2 18:30:40 10° SSE 18:34:33 26° ESE 18:35:27 24° E
Cosmos 1939 Rocket 3.0 18:34:41 10° S 18:38:40 76° W 18:42:36 10° NNW
Cosmos 2219 3.1 18:34:07 10° NNW 18:39:54 79° ENE 18:45:39 10° SSE
USA 307 4.3 18:36:26 10° NNW 18:39:55 24° NNE 18:40:52 22° NE
CZ-4B R/B 4.0 18:37:28 10° NNW 18:39:57 21° WNW 18:42:23 10° WSW
Meteor 2-10 Rocket 3.5 18:37:05 10° S 18:42:20 59° E 18:47:25 10° NNE
Cosmos 1553 Rocket 4.0 18:36:24 10° S 18:42:46 83° E 18:49:05 10° N
CZ-4 R/B 4.4 18:39:32 10° SSE 18:43:43 88° W 18:47:53 10° NNW
USA 308 4.2 18:41:14 10° NNW 18:44:48 25° NNE 18:45:31 24° NE
Helios 1A Rocket 2.8 18:42:00 10° SSE 18:46:08 85° ENE 18:50:15 10° NNW
Cosmos 2082 4.1 18:43:07 10° N 18:48:31 40° ENE 18:50:45 29° ESE
Meteor 2-15 Rocket 4.4 18:44:40 10° S 18:50:41 60° E 18:56:44 10° NNE
Okean-O 2.5 18:49:28 10° SSE 18:53:53 89° E 18:58:21 10° NNW
Cosmos 1992 Rocket 3.9 18:48:58 10° S 18:54:08 71° ESE 18:59:20 10° NNE
Cosmos 1689 Rocket 3.9 18:51:44 10° N 18:54:21 31° WNW 18:56:55 10° SW
ARGOS 3.6 18:54:41 33° E 18:55:55 37° ENE 19:00:53 10° N
Cosmos 1400 Rocket 4.5 18:54:42 10° SW 18:58:31 36° WNW 19:02:20 10° N
Cosmos 2369 3.7 18:53:22 10° S 18:58:59 62° ESE 19:03:11 18° NNE
OAO 2 Rocket 4.0 18:54:28 10° WSW 18:59:09 41° S 19:00:33 33° SE
Cosmos 1656 4.3 18:56:42 10° SW 19:02:09 56° WNW 19:07:43 10° NNE
CZ-4 R/B 1.4 18:58:52 10° S 19:02:46 75° WSW 19:06:39 10° NNW
Meteor 2-15 4.4 18:56:56 10° S 19:03:05 86° W 19:09:16 10° N
H-2A R/B 2.1 18:59:17 10° SSE 19:04:34 60° ENE 19:09:57 10° N
GEOS 3 Rocket 4.0 19:05:41 41° E 19:06:43 47° NE 19:11:51 10° NNW
Cosmos 220 Rocket 4.1 19:03:12 10° SSW 19:07:32 75° WNW 19:10:52 17° NNE
Cosmos 2058 2.7 19:03:57 10° N 19:08:04 89° E 19:11:46 12° S
Cosmos 1892 3.2 19:04:18 10° NNW 19:08:08 60° W 19:11:56 10° S
Geosat 3.9 19:06:43 16° NNE 19:10:45 89° WNW 19:15:47 10° SSW
Cosmos 1408 2.5 19:08:00 10° N 19:11:40 85° W 19:11:40 85° W
Cosmos 1745 Rocket 4.0 19:05:44 10° N 19:12:04 90° W 19:18:24 10° S
Cosmos 2227 Rocket 2.4 19:08:03 10° NNW 19:13:42 72° WSW 19:19:19 10° SSE
CSL-04 Rocket 3.6 19:08:21 10° SSE 19:13:52 73° ENE 19:19:23 10° N
Atlas Centaur 2 3.8 19:09:18 10° WSW 19:17:02 40° S 19:20:07 30° SE
Cosmos 2263 Rocket 3.9 19:14:58 10° N 19:17:16 18° NNE 19:17:16 18° NNE
Meteor 2-1 Rocket 4.4 19:16:29 10° SSW 19:21:58 70° W 19:27:30 10° N
SeaSat 1 3.1 19:26:15 40° NNE 19:26:15 40° NNE 19:29:51 10° NNW
SL-4 R/B 4.0 19:23:09 10° NNW 19:24:38 17° NNW 19:24:38 17° NNW
Cosmos 1697 Rocket 2.9 19:21:25 10° SSW 19:26:59 67° WNW 19:31:25 17° NNE
Cosmos 1346 Rocket 3.6 19:23:45 10° NNW 19:27:37 50° W 19:29:48 23° SSW
Cosmos 1825 4.3 19:25:23 10° N 19:26:28 18° N 19:26:28 18° N
Cosmos 1315 Rocket 3.7 19:25:56 10° SSW 19:29:44 46° WNW 19:32:10 20° NNW
CZ-4C R/B 4.3 19:24:45 10° NNW 19:29:36 20° NNE 19:29:36 20° NNE
USA 305 4.1 19:26:47 10° NW 19:29:36 34° NNW 19:29:36 34° NNW
NOSS 3-4 (A) 4.4 19:25:14 10° NNW 19:31:38 37° NE 19:31:38 37° NE
NOSS 3-4 (C) 4.4 19:25:21 10° NNW 19:31:43 37° NE 19:31:43 37° NE
SJ-11-01 4.5 19:32:24 39° S 19:34:02 69° WSW 19:38:43 10° NNW
USA 306 4.3 19:33:10 10° NW 19:35:44 32° NNW 19:35:44 32° NNW
NOSS 3-3 (A) 4.4 19:32:34 10° SW 19:38:14 57° NW 19:41:47 26° NNE
NOSS 3-3 (C) 4.4 19:32:39 10° SW 19:38:22 58° NW 19:41:53 26° NNE
USA 215 4.1 19:39:00 32° NNE 19:39:24 32° NNE 19:45:01 10° NW
Cosmos 1709 Rocket 3.9 19:35:26 10° N 19:41:51 87° E 19:44:29 39° S
MOS 1 Rocket 4.4 19:44:51 10° N 19:49:18 43° WNW 19:54:01 10° SW
Cosmos 1980 Rocket 2.2 19:44:00 10° SSW 19:49:11 75° SW 19:49:11 75° SW
Cosmos 2297 Rocket 4.1 19:48:34 10° NW 19:53:13 27° WSW 19:57:52 10° SSW
ATLAS 2AS CENTAUR R/B 3.5 19:46:52 10° NNW 19:52:43 37° NNE 19:52:43 37° NNE
Cosmos 2315 Rocket 4.1 19:51:55 10° SSW 19:58:05 71° W 20:04:18 10° N
Lacrosse 5 4.2 20:01:25 10° NNW 20:02:41 14° N 20:02:41 14° N
Atlas Centaur 2 4.5 20:58:32 10° WSW 21:02:43 27° SW 21:02:43 27° SW
